This is the latest recevied weather packets stored in our database for station/object KY0TEQ-13. If no packets are shown the sender has not sent any weather packets the latest 10 day(s).
| Time | Temp. | Humidity | Pressure | Rain* | Wind** | Luminosity | Snow |
|---|---|---|---|---|---|---|---|
| 1777872766 | 12.22° C | 39% | 1301.2 hPa | 0 mm | - | 0 W/m² | - |
| 1777872464 | 12.22° C | 38% | 1301.1 hPa | 0 mm | - | 0 W/m² | - |
| 1777872163 | 12.78° C | 37% | 1301.5 hPa | 0 mm | - | 0 W/m² | - |
| 1777871859 | 12.78° C | 37% | 1301.3 hPa | 0 mm | - | 0 W/m² | - |
| 1777871555 | 13.33° C | 37% | 1301.2 hPa | 0 mm | - | 0 W/m² | - |
| 1777871252 | 13.33° C | 36% | 1301.7 hPa | 0 mm | - | 0 W/m² | - |
| 1777870949 | 13.89° C | 34% | 1302 hPa | 0 mm | - | 0 W/m² | - |
| 1777870646 | 14.44° C | 31% | 1302 hPa | 0 mm | - | 0 W/m² | - |
| 1777870342 | 14.44° C | 30% | 1301.8 hPa | 0 mm | - | 0 W/m² | - |
| 1777870040 | 13.89° C | 30% | 1301.8 hPa | 0 mm | - | 0 W/m² | - |
| 1777869737 | 13.89° C | 30% | 1301.3 hPa | 0 mm | - | 0 W/m² | - |
| 1777869434 | 14.44° C | 29% | 1301.3 hPa | 0 mm | - | 0 W/m² | - |
| 1777869130 | 14.44° C | 29% | 1301.1 hPa | 0 mm | - | 0 W/m² | - |
| 1777868828 | 14.44° C | 29% | 1301.2 hPa | 0 mm | - | 0 W/m² | - |
| 1777868524 | 15° C | 27% | 1301.1 hPa | 0 mm | - | 0 W/m² | - |
| 1777868221 | 13.89° C | 28% | 1301 hPa | 0 mm | - | 0 W/m² | - |
| 1777867916 | 13.33° C | 30% | 1301 hPa | 0 mm | - | 0 W/m² | - |
| 1777867613 | 13.33° C | 29% | 1300.9 hPa | 0 mm | - | 0 W/m² | - |
| 1777867310 | 13.89° C | 29% | 1300.7 hPa | 0 mm | - | 0 W/m² | - |
| 1777867007 | 13.89° C | 27% | 1300.6 hPa | 0 mm | - | 0 W/m² | - |
| 1777866704 | 13.33° C | 27% | 1300.5 hPa | 0 mm | - | 0 W/m² | - |
| 1777865796 | 12.78° C | 31% | 1300.2 hPa | 0 mm | - | 0 W/m² | - |
| 1777865190 | 12.22° C | 33% | 1300 hPa | 0 mm | - | 0 W/m² | - |
| 1777863068 | 13.33° C | 27% | 1299.9 hPa | 0 mm | - | 0 W/m² | - |
| 1777847912 | 17.78° C | 19% | 1301.2 hPa | 0 mm | - | 166 W/m² | - |
* Rain latest hour (hover to see other rain measurements)
** Current wind speed in m/s (hover to see current wind gust speed)